Time,TemperatureF,DewpointF,PressureIn,WindDirection,WindDirectionDegrees,WindSpeedMPH,WindSpeedGustMPH,Humidity,HourlyPrecipIn,Conditions,Clouds,dailyrainin,SoftwareType,DateUTC
2013-02-16 00:02:00,21.0,16.0,30.19,NW,319,8.0,13.0,80,0.00,,,0.00,,2013-02-16 06:02:00,
2013-02-16 00:11:00,21.0,16.0,30.19,NW,319,8.0,13.0,80,0.00,,,0.00,,2013-02-16 06:11:00,
2013-02-16 00:21:00,21.0,16.0,30.19,NW,305,7.0,7.0,79,0.00,,,0.00,,2013-02-16 06:21:00,
2013-02-16 00:32:00,21.0,16.0,30.19,NW,304,8.0,10.0,80,0.00,,,0.00,,2013-02-16 06:32:00,
2013-02-16 00:42:00,21.0,16.0,30.19,NW,304,8.0,10.0,80,0.00,,,0.00,,2013-02-16 06:42:00,
2013-02-16 00:52:00,20.0,15.0,30.19,WNW,301,8.0,10.0,79,0.00,,,0.00,,2013-02-16 06:52:00,
2013-02-16 01:02:00,20.0,15.0,30.19,WNW,285,9.0,13.0,79,0.00,,,0.00,,2013-02-16 07:02:00,
2013-02-16 01:11:00,20.0,15.0,30.19,WNW,285,9.0,13.0,79,0.00,,,0.00,,2013-02-16 07:11:00,
2013-02-16 01:21:00,20.0,15.0,30.19,WNW,298,9.0,13.0,79,0.00,,,0.00,,2013-02-16 07:21:00,
2013-02-16 01:31:00,20.0,15.0,30.19,NW,306,9.0,10.0,80,0.00,,,0.00,,2013-02-16 07:31:00,
2013-02-16 01:42:00,20.0,15.0,30.19,NW,306,9.0,10.0,80,0.00,,,0.00,,2013-02-16 07:42:00,
2013-02-16 01:53:00,20.0,15.0,30.19,NW,304,8.0,13.0,81,0.00,,,0.00,,2013-02-16 07:53:00,
2013-02-16 02:01:00,20.0,15.0,30.19,NW,304,8.0,13.0,81,0.00,,,0.00,,2013-02-16 08:01:00,
2013-02-16 02:11:00,20.0,15.0,30.19,NW,304,8.0,13.0,81,0.00,,,0.00,,2013-02-16 08:11:00,
2013-02-16 02:21:00,19.0,14.0,30.19,NNW,329,13.0,18.0,81,0.00,,,0.00,,2013-02-16 08:21:00,
2013-02-16 02:31:00,19.0,15.0,30.19,NW,315,8.0,12.0,83,0.00,,,0.00,,2013-02-16 08:31:00,
2013-02-16 02:42:00,19.0,15.0,30.19,NW,315,8.0,12.0,83,0.00,,,0.00,,2013-02-16 08:42:00,
2013-02-16 02:52:00,18.0,13.0,30.18,NW,315,12.0,16.0,80,0.00,,,0.00,,2013-02-16 08:52:00,
2013-02-16 03:01:00,18.0,13.0,30.18,NW,323,9.0,10.0,80,0.00,,,0.00,,2013-02-16 09:01:00,
2013-02-16 03:11:00,18.0,13.0,30.18,NW,323,9.0,10.0,80,0.00,,,0.00,,2013-02-16 09:11:00,
2013-02-16 03:21:00,18.0,13.0,30.18,NW,323,9.0,10.0,80,0.00,,,0.00,,2013-02-16 09:21:00,
2013-02-16 03:31:00,18.0,13.0,30.18,NW,323,9.0,10.0,80,0.00,,,0.00,,2013-02-16 09:31:00,
2013-02-16 03:42:00,18.0,13.0,30.18,NW,323,9.0,10.0,80,0.00,,,0.00,,2013-02-16 09:42:00,
2013-02-16 03:52:00,17.0,13.0,30.18,NW,306,8.0,10.0,85,0.00,,,0.00,,2013-02-16 09:52:00,
2013-02-16 04:01:00,17.0,13.0,30.18,NW,316,8.0,12.0,85,0.00,,,0.00,,2013-02-16 10:01:00,
2013-02-16 04:11:00,17.0,13.0,30.18,NW,316,8.0,12.0,85,0.00,,,0.00,,2013-02-16 10:11:00,
2013-02-16 04:21:00,17.0,13.0,30.18,NW,316,8.0,12.0,85,0.00,,,0.00,,2013-02-16 10:21:00,
2013-02-16 04:31:00,16.0,11.0,30.18,NW,316,9.0,10.0,81,0.00,,,0.00,,2013-02-16 10:31:00,
2013-02-16 04:41:00,16.0,11.0,30.18,NW,316,9.0,10.0,81,0.00,,,0.00,,2013-02-16 10:41:00,
2013-02-16 04:52:00,16.0,11.0,30.19,NW,305,7.0,9.0,81,0.00,,,0.00,,2013-02-16 10:52:00,
2013-02-16 05:02:00,16.0,11.0,30.19,NW,305,7.0,9.0,81,0.00,,,0.00,,2013-02-16 11:02:00,
2013-02-16 05:11:00,16.0,11.0,30.19,NW,305,7.0,9.0,81,0.00,,,0.00,,2013-02-16 11:11:00,
2013-02-16 05:22:00,15.0,10.0,30.19,NW,318,8.0,9.0,80,0.00,,,0.00,,2013-02-16 11:22:00,
2013-02-16 05:32:00,15.0,10.0,30.19,NW,325,8.0,10.0,80,0.00,,,0.00,,2013-02-16 11:32:00,
2013-02-16 05:42:00,15.0,10.0,30.19,NW,325,8.0,10.0,80,0.00,,,0.00,,2013-02-16 11:42:00,
2013-02-16 05:52:00,15.0,10.0,30.19,NW,325,8.0,10.0,80,0.00,,,0.00,,2013-02-16 11:52:00,
2013-02-16 06:01:00,14.0,9.0,30.19,NW,304,8.0,12.0,80,0.00,,,0.00,,2013-02-16 12:01:00,
2013-02-16 06:12:00,14.0,9.0,30.19,NW,304,8.0,12.0,80,0.00,,,0.00,,2013-02-16 12:12:00,
2013-02-16 06:22:00,14.0,9.0,30.19,NW,316,7.0,10.0,80,0.00,,,0.00,,2013-02-16 12:22:00,
2013-02-16 06:32:00,14.0,9.0,30.19,NW,306,7.0,8.0,80,0.00,,,0.00,,2013-02-16 12:32:00,
2013-02-16 06:42:00,14.0,9.0,30.19,NW,306,7.0,8.0,80,0.00,,,0.00,,2013-02-16 12:42:00,
2013-02-16 06:52:00,14.0,9.0,30.19,NW,306,6.0,8.0,80,0.00,,,0.00,,2013-02-16 12:52:00,
2013-02-16 07:02:00,14.0,9.0,30.20,North,0,0.0,6.0,81,0.00,,,0.00,,2013-02-16 13:02:00,
2013-02-16 07:11:00,14.0,10.0,30.20,WNW,295,0.0,0.0,83,0.00,,,0.00,,2013-02-16 13:11:00,
2013-02-16 07:21:00,14.0,10.0,30.20,WNW,295,0.0,0.0,83,0.00,,,0.00,,2013-02-16 13:21:00,
2013-02-16 07:31:00,16.0,12.0,30.20,North,0,0.0,0.0,83,0.00,,,0.00,,2013-02-16 13:31:00,
2013-02-16 07:41:00,16.0,12.0,30.20,North,0,0.0,0.0,83,0.00,,,0.00,,2013-02-16 13:41:00,
2013-02-16 07:51:00,19.0,13.0,30.21,NW,304,5.0,8.0,78,0.00,,,0.00,,2013-02-16 13:51:00,
2013-02-16 08:01:00,19.0,13.0,30.21,NW,304,5.0,8.0,78,0.00,,,0.00,,2013-02-16 14:01:00,
2013-02-16 08:11:00,19.0,13.0,30.21,NW,304,5.0,8.0,78,0.00,,,0.00,,2013-02-16 14:11:00,
2013-02-16 08:21:00,22.0,13.0,30.21,WNW,299,0.0,0.0,68,0.00,,,0.00,,2013-02-16 14:21:00,
2013-02-16 08:32:00,22.0,12.0,30.21,WNW,298,6.0,7.0,66,0.00,,,0.00,,2013-02-16 14:32:00,
2013-02-16 09:01:00,22.0,12.0,30.21,WNW,300,5.0,10.0,65,0.00,,,0.00,,2013-02-16 15:01:00,
2013-02-16 09:11:00,22.0,12.0,30.21,WNW,300,5.0,10.0,65,0.00,,,0.00,,2013-02-16 15:11:00,
2013-02-16 09:21:00,22.0,12.0,30.21,North,0,0.0,0.0,65,0.00,,,0.00,,2013-02-16 15:21:00,
2013-02-16 09:32:00,23.0,12.0,30.21,North,0,0.0,0.0,63,0.00,,,0.00,,2013-02-16 15:32:00,
2013-02-16 09:42:00,23.0,12.0,30.21,North,0,0.0,0.0,63,0.00,,,0.00,,2013-02-16 15:42:00,
2013-02-16 09:51:00,25.0,13.0,30.21,West,274,6.0,6.0,60,0.00,,,0.00,,2013-02-16 15:51:00,
2013-02-16 10:01:00,27.0,13.0,30.20,West,273,5.0,6.0,54,0.00,,,0.00,,2013-02-16 16:01:00,
2013-02-16 10:52:00,29.0,13.0,30.20,WNW,294,5.0,9.0,50,0.00,,,0.00,,2013-02-16 16:52:00,
2013-02-16 11:01:00,29.0,13.0,30.19,West,271,8.0,10.0,50,0.00,,,0.00,,2013-02-16 17:01:00,
2013-02-16 11:21:00,29.0,14.0,30.19,West,281,7.0,12.0,52,0.00,,,0.00,,2013-02-16 17:21:00,
2013-02-16 11:32:00,29.0,14.0,30.19,WNW,288,6.0,7.0,52,0.00,,,0.00,,2013-02-16 17:32:00,
2013-02-16 11:42:00,29.0,14.0,30.19,WNW,288,6.0,7.0,52,0.00,,,0.00,,2013-02-16 17:42:00,
2013-02-16 11:52:00,30.0,15.0,30.19,West,271,8.0,13.0,52,0.00,,,0.00,,2013-02-16 17:52:00,
2013-02-16 12:02:00,29.0,14.0,30.18,West,275,9.0,12.0,54,0.00,,,0.00,,2013-02-16 18:02:00,
2013-02-16 12:11:00,29.0,14.0,30.17,West,275,7.0,14.0,54,0.00,,,0.00,,2013-02-16 18:11:00,
2013-02-16 12:21:00,29.0,14.0,30.17,West,275,7.0,14.0,54,0.00,,,0.00,,2013-02-16 18:21:00,
2013-02-16 12:33:00,29.0,15.0,30.16,West,272,9.0,14.0,55,0.00,,,0.00,,2013-02-16 18:33:00,
2013-02-16 12:42:00,29.0,15.0,30.16,West,272,9.0,14.0,55,0.00,,,0.00,,2013-02-16 18:42:00,
2013-02-16 12:51:00,29.0,15.0,30.16,West,272,9.0,14.0,55,0.00,,,0.00,,2013-02-16 18:51:00,
2013-02-16 13:02:00,29.0,15.0,30.15,WNW,284,8.0,14.0,55,0.00,,,0.00,,2013-02-16 19:02:00,
2013-02-16 13:11:00,29.0,15.0,30.15,WNW,284,8.0,14.0,55,0.00,,,0.00,,2013-02-16 19:11:00,
2013-02-16 13:21:00,29.0,15.0,30.14,WSW,256,9.0,10.0,56,0.00,,,0.00,,2013-02-16 19:21:00,
2013-02-16 13:31:00,29.0,15.0,30.14,WSW,256,9.0,10.0,56,0.00,,,0.00,,2013-02-16 19:31:00,
2013-02-16 13:42:00,29.0,15.0,30.14,WSW,256,9.0,10.0,56,0.00,,,0.00,,2013-02-16 19:42:00,
2013-02-16 13:52:00,29.0,16.0,30.14,West,264,9.0,13.0,58,0.00,,,0.00,,2013-02-16 19:52:00,
2013-02-16 14:01:00,31.0,18.0,30.13,WSW,248,9.0,13.0,57,0.00,,,0.00,,2013-02-16 20:01:00,
2013-02-16 14:11:00,31.0,18.0,30.13,WSW,258,12.0,12.0,57,0.00,,,0.00,,2013-02-16 20:11:00,
2013-02-16 14:21:00,31.0,18.0,30.13,WSW,258,12.0,12.0,57,0.00,,,0.00,,2013-02-16 20:21:00,
2013-02-16 14:32:00,29.0,17.0,30.13,West,266,9.0,14.0,61,0.00,,,0.00,,2013-02-16 20:32:00,
2013-02-16 14:42:00,29.0,17.0,30.13,West,266,9.0,14.0,61,0.00,,,0.00,,2013-02-16 20:42:00,
2013-02-16 14:52:00,29.0,17.0,30.12,WNW,284,8.0,10.0,60,0.00,,,0.00,,2013-02-16 20:52:00,
2013-02-16 15:02:00,29.0,18.0,30.12,West,272,8.0,13.0,63,0.00,,,0.00,,2013-02-16 21:02:00,
2013-02-16 15:11:00,29.0,18.0,30.12,West,272,8.0,13.0,63,0.00,,,0.00,,2013-02-16 21:11:00,
2013-02-16 15:21:00,29.0,17.0,30.12,West,262,9.0,12.0,60,0.00,,,0.00,,2013-02-16 21:21:00,
2013-02-16 15:31:00,28.0,16.0,30.13,WNW,284,10.0,16.0,61,0.00,,,0.00,,2013-02-16 21:31:00,
2013-02-16 15:41:00,28.0,16.0,30.13,WNW,284,10.0,16.0,61,0.00,,,0.00,,2013-02-16 21:41:00,
2013-02-16 15:52:00,28.0,16.0,30.13,West,275,9.0,12.0,61,0.00,,,0.00,,2013-02-16 21:52:00,
2013-02-16 16:01:00,28.0,17.0,30.13,West,276,8.0,16.0,62,0.00,,,0.00,,2013-02-16 22:01:00,
2013-02-16 16:11:00,28.0,17.0,30.13,West,276,8.0,16.0,62,0.00,,,0.00,,2013-02-16 22:11:00,
2013-02-16 16:21:00,28.0,16.0,30.13,NW,312,9.0,14.0,60,0.00,,,0.00,,2013-02-16 22:21:00,
2013-02-16 16:32:00,28.0,16.0,30.13,West,277,8.0,13.0,61,0.00,,,0.00,,2013-02-16 22:32:00,
2013-02-16 16:42:00,28.0,16.0,30.13,West,277,8.0,13.0,61,0.00,,,0.00,,2013-02-16 22:42:00,
2013-02-16 16:51:00,27.0,16.0,30.13,NW,306,7.0,13.0,63,0.00,,,0.00,,2013-02-16 22:51:00,
2013-02-16 17:02:00,27.0,17.0,30.13,NNW,329,10.0,10.0,66,0.00,,,0.00,,2013-02-16 23:02:00,
2013-02-16 17:11:00,26.0,16.0,30.13,WNW,298,8.0,13.0,65,0.00,,,0.00,,2013-02-16 23:11:00,
2013-02-16 17:21:00,26.0,16.0,30.13,WNW,298,8.0,13.0,65,0.00,,,0.00,,2013-02-16 23:21:00,
2013-02-16 17:31:00,26.0,16.0,30.13,NW,317,10.0,10.0,66,0.00,,,0.00,,2013-02-16 23:31:00,
2013-02-16 17:42:00,26.0,16.0,30.13,NW,317,10.0,10.0,66,0.00,,,0.00,,2013-02-16 23:42:00,
2013-02-16 17:52:00,26.0,17.0,30.13,NW,314,9.0,13.0,67,0.00,,,0.00,,2013-02-16 23:52:00,
2013-02-16 18:02:00,25.0,16.0,30.14,NW,311,9.0,9.0,68,0.00,,,0.00,,2013-02-17 00:02:00,
2013-02-16 18:12:00,25.0,16.0,30.14,NW,311,9.0,9.0,68,0.00,,,0.00,,2013-02-17 00:12:00,
2013-02-16 18:21:00,25.0,16.0,30.14,NW,311,9.0,9.0,68,0.00,,,0.00,,2013-02-17 00:21:00,
2013-02-16 18:32:00,25.0,16.0,30.14,NW,311,9.0,9.0,68,0.00,,,0.00,,2013-02-17 00:32:00,
2013-02-16 19:01:00,23.0,16.0,30.15,NW,318,7.0,9.0,73,0.00,,,0.00,,2013-02-17 01:01:00,
2013-02-16 19:11:00,23.0,16.0,30.15,NW,318,7.0,9.0,73,0.00,,,0.00,,2013-02-17 01:11:00,
2013-02-16 19:21:00,23.0,16.0,30.15,NW,318,7.0,9.0,73,0.00,,,0.00,,2013-02-17 01:21:00,
2013-02-16 19:31:00,22.0,16.0,30.16,NW,312,7.0,8.0,77,0.00,,,0.00,,2013-02-17 01:31:00,
2013-02-16 19:42:00,22.0,16.0,30.16,NW,312,7.0,8.0,77,0.00,,,0.00,,2013-02-17 01:42:00,
2013-02-16 19:52:00,22.0,16.0,30.16,WNW,296,8.0,8.0,78,0.00,,,0.00,,2013-02-17 01:52:00,
2013-02-16 20:01:00,22.0,16.0,30.16,WNW,296,8.0,8.0,78,0.00,,,0.00,,2013-02-17 02:01:00,
2013-02-16 20:11:00,22.0,16.0,30.16,WNW,296,8.0,8.0,78,0.00,,,0.00,,2013-02-17 02:11:00,
2013-02-16 20:21:00,21.0,16.0,30.17,NW,308,6.0,7.0,81,0.00,,,0.00,,2013-02-17 02:21:00,
2013-02-16 20:31:00,21.0,17.0,30.17,NW,318,6.0,7.0,83,0.00,,,0.00,,2013-02-17 02:31:00,
2013-02-16 20:41:00,21.0,17.0,30.17,NW,318,6.0,7.0,83,0.00,,,0.00,,2013-02-17 02:41:00,
2013-02-16 20:52:00,21.0,17.0,30.17,NW,318,6.0,7.0,83,0.00,,,0.00,,2013-02-17 02:52:00,
2013-02-16 21:02:00,20.0,16.0,30.18,NW,325,6.0,8.0,84,0.00,,,0.00,,2013-02-17 03:02:00,
2013-02-16 21:11:00,20.0,16.0,30.18,NW,325,6.0,8.0,84,0.00,,,0.00,,2013-02-17 03:11:00,
2013-02-16 21:21:00,20.0,16.0,30.18,WNW,303,7.0,8.0,86,0.00,,,0.00,,2013-02-17 03:21:00,
2013-02-16 21:31:00,20.0,16.0,30.18,NNW,329,7.0,8.0,85,0.00,,,0.00,,2013-02-17 03:31:00,
2013-02-16 21:42:00,20.0,16.0,30.18,NNW,329,7.0,8.0,85,0.00,,,0.00,,2013-02-17 03:42:00,
2013-02-16 21:51:00,20.0,16.0,30.18,North,4,0.0,0.0,85,0.00,,,0.00,,2013-02-17 03:51:00,
2013-02-16 22:01:00,19.0,16.0,30.18,NNE,26,7.0,12.0,88,0.00,,,0.00,,2013-02-17 04:01:00,
2013-02-16 22:11:00,17.0,14.0,30.18,NE,41,9.0,10.0,89,0.00,,,0.00,,2013-02-17 04:11:00,
2013-02-16 22:21:00,17.0,14.0,30.18,NE,41,9.0,10.0,89,0.00,,,0.00,,2013-02-17 04:21:00,
2013-02-16 22:31:00,17.0,14.0,30.17,NNE,23,10.0,10.0,86,0.00,,,0.00,,2013-02-17 04:31:00,
2013-02-16 22:41:00,17.0,14.0,30.17,NNE,23,10.0,10.0,86,0.00,,,0.00,,2013-02-17 04:41:00,
2013-02-16 22:51:00,16.0,13.0,30.17,NE,41,12.0,13.0,88,0.00,,,0.00,,2013-02-17 04:51:00,
2013-02-16 23:01:00,16.0,13.0,30.17,NE,37,10.0,14.0,89,0.00,,,0.00,,2013-02-17 05:01:00,
2013-02-16 23:12:00,16.0,13.0,30.16,NE,47,9.0,12.0,88,0.00,,,0.00,,2013-02-17 05:12:00,
2013-02-16 23:22:00,16.0,13.0,30.16,NE,47,9.0,12.0,88,0.00,,,0.00,,2013-02-17 05:22:00,
2013-02-16 23:33:00,15.0,12.0,30.17,NE,37,9.0,13.0,86,0.00,,,0.00,,2013-02-17 05:33:00,
2013-02-16 23:42:00,15.0,12.0,30.17,NE,37,9.0,13.0,86,0.00,,,0.00,,2013-02-17 05:42:00,
2013-02-16 23:52:00,15.0,12.0,30.17,NE,42,9.0,10.0,88,0.00,,,0.00,,2013-02-17 05:52:00,